TimeCDT,TemperatureF,Dew PointF,Humidity,Sea Level PressureIn,VisibilityMPH,Wind Direction,Wind SpeedMPH,Gust SpeedMPH,PrecipitationIn,Events,Conditions,WindDirDegrees,DateUTC
12:15 AM,57.2,39.6,52,30.05,10.0,South,6.9,-,N/A,,Clear,190,2013-05-14 05:15:00
12:35 AM,56.5,39.4,53,30.04,10.0,South,9.2,-,N/A,,Clear,190,2013-05-14 05:35:00
12:55 AM,56.3,39.7,54,30.04,10.0,South,8.1,-,N/A,,Clear,190,2013-05-14 05:55:00
1:15 AM,55.4,39.6,55,30.03,10.0,South,8.1,-,N/A,,Clear,190,2013-05-14 06:15:00
1:35 AM,55.2,39.2,55,30.02,10.0,South,8.1,-,N/A,,Clear,190,2013-05-14 06:35:00
1:55 AM,54.9,39.2,56,30.01,10.0,South,8.1,-,N/A,,Clear,180,2013-05-14 06:55:00
2:15 AM,54.9,38.7,54,30.00,10.0,South,9.2,-,N/A,,Clear,190,2013-05-14 07:15:00
2:35 AM,55.4,37.9,52,30.00,10.0,South,10.4,-,N/A,,Clear,180,2013-05-14 07:35:00
2:55 AM,54.9,38.3,54,29.99,10.0,South,10.4,-,N/A,,Clear,180,2013-05-14 07:55:00
3:15 AM,55.6,37.8,51,29.98,10.0,South,10.4,-,N/A,,Clear,180,2013-05-14 08:15:00
3:35 AM,55.2,38.1,53,29.97,10.0,South,10.4,-,N/A,,Clear,180,2013-05-14 08:35:00
3:55 AM,55.4,37.6,51,29.96,10.0,South,11.5,-,N/A,,Clear,180,2013-05-14 08:55:00
4:15 AM,54.9,37.9,53,29.96,10.0,South,11.5,-,N/A,,Clear,180,2013-05-14 09:15:00
4:35 AM,54.9,37.9,53,29.95,10.0,South,10.4,-,N/A,,Clear,180,2013-05-14 09:35:00
4:55 AM,54.5,38.3,54,29.95,10.0,South,10.4,-,N/A,,Clear,180,2013-05-14 09:55:00
5:15 AM,54.3,38.7,55,29.95,10.0,South,11.5,-,N/A,,Clear,180,2013-05-14 10:15:00
5:35 AM,53.8,39.2,58,29.94,10.0,South,11.5,-,N/A,,Clear,180,2013-05-14 10:35:00
5:55 AM,54.0,39.2,57,29.94,10.0,South,11.5,17.3,N/A,,Clear,180,2013-05-14 10:55:00
6:15 AM,54.9,39.6,56,29.94,10.0,South,10.4,-,N/A,,Clear,180,2013-05-14 11:15:00
6:35 AM,55.6,39.7,55,29.93,10.0,South,12.7,-,N/A,,Clear,190,2013-05-14 11:35:00
6:55 AM,56.7,40.5,55,29.93,10.0,South,11.5,-,N/A,,Clear,190,2013-05-14 11:55:00
7:15 AM,57.7,41.2,54,29.91,10.0,South,16.1,-,N/A,,Clear,190,2013-05-14 12:15:00
7:35 AM,59.9,42.8,53,29.91,10.0,South,16.1,-,N/A,,Clear,190,2013-05-14 12:35:00
7:55 AM,62.2,44.4,52,29.90,10.0,South,19.6,23.0,N/A,,Clear,190,2013-05-14 12:55:00
8:15 AM,63.5,45.3,52,29.89,10.0,SSW,24.2,27.6,N/A,,Clear,200,2013-05-14 13:15:00
8:35 AM,64.0,45.9,52,29.88,10.0,SSW,18.4,25.3,N/A,,Clear,200,2013-05-14 13:35:00
8:55 AM,64.6,46.8,52,29.87,10.0,SSW,23.0,27.6,N/A,,Clear,200,2013-05-14 13:55:00
9:15 AM,66.2,48.0,52,29.87,10.0,SSW,16.1,23.0,N/A,,Clear,200,2013-05-14 14:15:00
9:35 AM,68.0,49.5,51,29.86,10.0,SSW,16.1,24.2,N/A,,Clear,210,2013-05-14 14:35:00
9:55 AM,69.4,50.2,50,29.85,10.0,SSW,18.4,26.5,N/A,,Clear,210,2013-05-14 14:55:00
10:15 AM,70.7,51.3,50,29.84,10.0,SSW,18.4,24.2,N/A,,Clear,200,2013-05-14 15:15:00
10:35 AM,72.1,52.0,49,29.84,10.0,South,18.4,23.0,N/A,,Clear,190,2013-05-14 15:35:00
10:55 AM,73.2,52.9,49,29.83,10.0,SSW,16.1,-,N/A,,Clear,200,2013-05-14 15:55:00
11:15 AM,75.0,53.6,47,29.82,7.0,SSW,18.4,26.5,N/A,,Clear,200,2013-05-14 16:15:00
11:35 AM,76.3,54.0,46,29.82,7.0,SSW,21.9,-,N/A,,Clear,210,2013-05-14 16:35:00
11:55 AM,77.5,54.7,45,29.81,5.0,SW,18.4,25.3,N/A,,Haze,220,2013-05-14 16:55:00
12:15 PM,79.0,55.4,44,29.81,7.0,SW,17.3,26.5,N/A,,Clear,220,2013-05-14 17:15:00
12:35 PM,80.6,55.2,42,29.80,5.0,WSW,20.7,27.6,N/A,,Haze,240,2013-05-14 17:35:00
12:55 PM,80.8,55.2,41,29.80,5.0,WSW,20.7,25.3,N/A,,Haze,240,2013-05-14 17:55:00
1:15 PM,81.7,55.9,41,29.80,5.0,WSW,18.4,23.0,N/A,,Haze,240,2013-05-14 18:15:00
1:35 PM,82.6,56.1,40,29.79,5.0,SW,18.4,24.2,N/A,,Haze,230,2013-05-14 18:35:00
1:55 PM,83.3,57.0,41,29.79,7.0,SW,16.1,-,N/A,,Clear,220,2013-05-14 18:55:00
2:15 PM,84.4,57.2,39,29.79,5.0,SW,16.1,21.9,N/A,,Haze,230,2013-05-14 19:15:00
2:35 PM,85.1,57.0,38,29.78,7.0,WSW,19.6,25.3,N/A,,Clear,240,2013-05-14 19:35:00
2:55 PM,85.1,57.0,38,29.78,5.0,SW,21.9,26.5,N/A,,Haze,230,2013-05-14 19:55:00
3:15 PM,85.6,57.4,38,29.78,7.0,SW,19.6,26.5,N/A,,Clear,220,2013-05-14 20:15:00
3:35 PM,86.0,56.8,37,29.79,7.0,WSW,15.0,24.2,N/A,,Clear,250,2013-05-14 20:35:00
3:55 PM,86.0,57.2,37,29.79,5.0,WSW,13.8,-,N/A,,Haze,250,2013-05-14 20:55:00
4:15 PM,85.6,57.6,38,29.78,4.0,SW,19.6,25.3,N/A,,Haze,220,2013-05-14 21:15:00
4:35 PM,86.0,58.6,39,29.77,5.0,SW,16.1,25.3,N/A,,Haze,220,2013-05-14 21:35:00
4:55 PM,86.0,59.2,40,29.77,7.0,SW,19.6,23.0,N/A,,Clear,220,2013-05-14 21:55:00
5:15 PM,85.8,59.4,41,29.77,7.0,SW,15.0,-,N/A,,Clear,230,2013-05-14 22:15:00
5:35 PM,85.6,59.4,41,29.77,7.0,SW,16.1,-,N/A,,Clear,220,2013-05-14 22:35:00
5:55 PM,85.3,59.0,41,29.76,7.0,SW,15.0,23.0,N/A,,Clear,230,2013-05-14 22:55:00
6:15 PM,84.7,59.2,42,29.76,7.0,SW,15.0,-,N/A,,Clear,220,2013-05-14 23:15:00
6:35 PM,84.2,59.5,43,29.76,7.0,SW,15.0,21.9,N/A,,Clear,220,2013-05-14 23:35:00
6:55 PM,83.5,59.9,45,29.76,7.0,SW,10.4,-,N/A,,Clear,220,2013-05-14 23:55:00
7:15 PM,82.4,60.4,47,29.76,5.0,SSW,10.4,-,N/A,,Haze,200,2013-05-15 00:15:00
7:35 PM,81.1,60.8,50,29.75,5.0,SSW,12.7,-,N/A,,Haze,210,2013-05-15 00:35:00
7:55 PM,79.0,61.2,54,29.75,7.0,SSW,9.2,-,N/A,,Clear,200,2013-05-15 00:55:00
8:15 PM,77.9,61.2,56,29.75,7.0,South,8.1,-,N/A,,Clear,190,2013-05-15 01:15:00
8:35 PM,77.0,61.2,58,29.75,7.0,South,9.2,-,N/A,,Clear,190,2013-05-15 01:35:00
8:55 PM,77.5,61.2,57,29.76,7.0,South,10.4,-,N/A,,Clear,190,2013-05-15 01:55:00
9:15 PM,77.2,61.3,58,29.77,7.0,South,12.7,-,N/A,,Clear,180,2013-05-15 02:15:00
9:35 PM,76.6,61.5,59,29.77,7.0,South,10.4,-,N/A,,Clear,180,2013-05-15 02:35:00
9:55 PM,75.4,61.7,62,29.77,7.0,South,10.4,-,N/A,,Clear,180,2013-05-15 02:55:00
10:15 PM,74.7,61.7,64,29.77,7.0,South,9.2,-,N/A,,Clear,190,2013-05-15 03:15:00
10:35 PM,73.9,61.7,65,29.77,7.0,South,8.1,-,N/A,,Clear,190,2013-05-15 03:35:00
10:55 PM,73.4,62.6,69,29.77,7.0,SSW,9.2,-,N/A,,Clear,200,2013-05-15 03:55:00
11:15 PM,73.4,61.7,67,29.77,10.0,SSW,10.4,-,N/A,,Clear,210,2013-05-15 04:15:00
11:35 PM,73.4,61.7,67,29.76,7.0,SSW,13.8,-,N/A,,Clear,200,2013-05-15 04:35:00
11:55 PM,72.7,61.0,67,29.76,7.0,SSW,12.7,-,N/A,,Clear,210,2013-05-15 04:55:00